Location: Bartlow
(52.0833°N, 0.3167°E)
Time: 10:05:36
(UTC+00:00)

Cosmos 1655 Rocket - Pass Details

Date: 26 September 2023
Orbit: 970 x 1006 km, 83.0° (Epoch: 10 December)

Event Time Altitude Azimuth Distance (km) Brightness Sun altitude
Exits shadow 04:30:19 - 206° (SSW) 3,450 6.5 -13.0°
Reaches altitude 10° 04:32:11 10° 210° (SSW) 2,775 6.0 -12.8°
Maximum altitude 04:38:24 53° 287° (WNW) 1,231 4.2 -11.8°
Drops below altitude 10° 04:44:41 10° 3° (N) 2,794 6.6 -10.9°
Sets 04:47:19 0° 9° (N) 3,746 7.3 -10.5°
